Regional Weather Roundup
Issued by NWS

Home | Current Version | Previous Version | Graphics & Text | Print | Product List | Glossary On
Versions: 1 2 3 4 5 6 7 8 9 10 11 12 13 14 15 16 17 18 19 20 21 22 23 24 25 26 27 28 29 30 31 32 33 34 35 36 37 38 39 40 41 42 43 44 45 46 47 48 49 50
000
ASUS43 KFSD 221002
RWRSD

WEATHER ROUNDUP FOR SOUTH DAKOTA
NATIONAL WEATHER SERVICE SIOUX FALLS SD
400 AM CST SAT NOV 22 2014

NOTE: "FAIR" INDICATES FEW OR NO CLOUDS BELOW 12,000 FEET WITH NO
SIGNIFICANT WEATHER AND/OR OBSTRUCTIONS TO VISIBILITY.


SDZ001>005-009-010-012>017-221100-
NORTHWEST AND NORTH CENTRAL SOUTH DAKOTA

CITY           SKY/WX    TMP DP  RH WIND       PRES   REMARKS
BUFFALO          N/A     29  22  75 E7        29.53F WCI  22
FAITH            N/A     27  22  81 S16       29.65F WCI  15
MOBRIDGE       CLEAR     29  25  85 SE7       29.65F WCI  22
$$

SDZ012>016-024>037-041>051-057-063-072>074-221100-
SOUTHWEST AND SOUTH CENTRAL SOUTH DAKOTA

CITY           SKY/WX    TMP DP  RH WIND       PRES   REMARKS
RAPID CTY ARPT CLEAR     25  19  78 SE3       29.66F
PIERRE         CLEAR     25  23  92 SW3       29.71F
CUSTER         CLEAR     34  21  59 W10       29.67F WCI  26
ELLSWORTH AFB  CLEAR     32  22  66 SW9       29.64F WCI  24
PHILIP         CLEAR     28  20  71 E5        29.70F WCI  23
PINE RIDGE     CLEAR     17  13  84 CALM      29.74F
WINNER         FAIR      37  25  61 SW6       29.75F
$$

SDZ004>011-016>023-039-040-221100-
NORTHEAST SOUTH DAKOTA

CITY           SKY/WX    TMP DP  RH WIND       PRES   REMARKS
ABERDEEN       CLEAR     22  18  85 S10       29.72F WCI  11
WATERTOWN      CLEAR     26  24  92 SE7       29.73F WCI  18
SISSETON         N/A     33  27  78 CALM      29.69F
$$

SDZ017-020-022-023-036>040-048>070-221100-
SOUTHEAST SOUTH DAKOTA

CITY           SKY/WX    TMP DP  RH WIND       PRES   REMARKS
SIOUX FALLS    CLEAR     32  29  88 SW8       29.79F WCI  25
HURON          CLEAR     25  23  92 S5        29.75F FOG     WCI  19
MITCHELL       CLEAR     26  24  92 S6        29.77F FOG     WCI  19
YANKTON        CLEAR     30  27  86 SE5       29.80F WCI  25
$$

ABBREVIATIONS USED IN REMARKS
   TC - TEMPERATURE IN CELSIUS
  WCI - WIND CHILL INDEX
   HX - HEAT INDEX
  VSB - VISIBILITY



USA.gov is the U.S. government's official web portal to all federal, state and local government web resources and services.